• Em Portugal
  • Lista de países
  • Para 7 dias
  • Temperatura da água
  • Mapas de satélite
  • Mapa do tempo
  • Widgets de tempo
  • user-avatar
    Iniciar Sessão

    Previsão horária em Baalbek

    Hoje, 15 Agosto, Quarta-feira

    Tempo Temperatura Precipitação Vento Pressão Humidade
    00:00 +23°C° 0 mm 2 m/s 657 mmHg 59%
    01:00 +21°C° 0 mm 2 m/s 657 mmHg 58%
    02:00 +21°C° 0 mm 2 m/s 656 mmHg 58%
    03:00 +20°C° 0 mm 2 m/s 656 mmHg 56%
    04:00 +20°C° 0 mm 2 m/s 656 mmHg 54%
    05:00 +19°C° 0 mm 2 m/s 656 mmHg 52%
    06:00 +21°C° 0 mm 2 m/s 657 mmHg 44%
    07:00 +24°C° 0 mm 2 m/s 657 mmHg 36%
    08:00 +26°C° 0 mm 2 m/s 658 mmHg 29%
    09:00 +27°C° 0 mm 2 m/s 658 mmHg 26%
    10:00 +29°C° 0 mm 2 m/s 659 mmHg 24%
    11:00 +30°C° 0 mm 2 m/s 659 mmHg 21%
    12:00 +31°C° 0 mm 3 m/s 659 mmHg 22%
    13:00 +31°C° 0 mm 3 m/s 659 mmHg 23%
    14:00 +31°C° 0 mm 3 m/s 659 mmHg 24%
    15:00 +31°C° 0 mm 3 m/s 659 mmHg 27%
    16:00 +30°C° 0 mm 3 m/s 658 mmHg 30%
    17:00 +30°C° 0 mm 3 m/s 658 mmHg 33%
    18:00 +29°C° 0 mm 2 m/s 658 mmHg 39%
    19:00 +27°C° 0 mm 2 m/s 658 mmHg 46%
    20:00 +26°C° 0 mm 2 m/s 658 mmHg 53%
    21:00 +25°C° 0 mm 2 m/s 658 mmHg 55%
    22:00 +25°C° 0 mm 1 m/s 658 mmHg 57%
    23:00 +24°C° 0 mm 1 m/s 658 mmHg 59%

    Amanhã, 16 Agosto, Quinta-feira

    Tempo Temperatura Precipitação Vento Pressão Humidade
    00:00 +24°C° 0 mm 1 m/s 658 mmHg 60%
    01:00 +23°C° 0 mm 1 m/s 657 mmHg 60%
    02:00 +23°C° 0 mm 1 m/s 657 mmHg 61%
    03:00 +22°C° 0 mm 1 m/s 657 mmHg 62%
    04:00 +22°C° 0 mm 1 m/s 657 mmHg 63%
    05:00 +21°C° 0 mm 1 m/s 657 mmHg 63%
    06:00 +23°C° 0 mm 1 m/s 658 mmHg 55%
    07:00 +25°C° 0 mm 1 m/s 658 mmHg 46%
    08:00 +26°C° 0 mm 1 m/s 659 mmHg 37%
    09:00 +28°C° 0 mm 2 m/s 659 mmHg 32%
    10:00 +29°C° 0 mm 2 m/s 660 mmHg 27%
    11:00 +31°C° 0 mm 2 m/s 660 mmHg 22%
    12:00 +31°C° 0 mm 3 m/s 660 mmHg 22%
    13:00 +33°C° 0 mm 3 m/s 660 mmHg 23%
    14:00 +33°C° 0 mm 3 m/s 660 mmHg 23%
    15:00 +33°C° 0 mm 3 m/s 660 mmHg 27%
    16:00 +31°C° 0 mm 3 m/s 659 mmHg 30%
    17:00 +30°C° 0 mm 3 m/s 659 mmHg 34%
    18:00 +29°C° 0 mm 2 m/s 659 mmHg 40%
    19:00 +28°C° 0 mm 2 m/s 659 mmHg 46%
    20:00 +26°C° 0 mm 2 m/s 659 mmHg 53%
    21:00 +26°C° 0 mm 2 m/s 659 mmHg 54%
    22:00 +25°C° 0 mm 1 m/s 659 mmHg 56%
    23:00 +25°C° 0 mm 1 m/s 659 mmHg 57%

    Depois de amanhã, 17 Agosto, Sexta-feira

    Tempo Temperatura Precipitação Vento Pressão Humidade
    00:00 +24°C° 0 mm 1 m/s 658 mmHg 57%
    01:00 +23°C° 0 mm 1 m/s 658 mmHg 56%
    02:00 +23°C° 0 mm 2 m/s 658 mmHg 56%
    03:00 +22°C° 0 mm 1 m/s 658 mmHg 55%
    04:00 +22°C° 0 mm 1 m/s 658 mmHg 54%
    05:00 +21°C° 0 mm 1 m/s 658 mmHg 53%
    06:00 +23°C° 0 mm 2 m/s 658 mmHg 45%
    07:00 +25°C° 0 mm 2 m/s 659 mmHg 37%
    08:00 +27°C° 0 mm 2 m/s 660 mmHg 29%
    09:00 +28°C° 0 mm 2 m/s 660 mmHg 27%
    10:00 +30°C° 0 mm 3 m/s 660 mmHg 24%
    11:00 +31°C° 0 mm 3 m/s 661 mmHg 21%
    12:00 +33°C° 0 mm 3 m/s 660 mmHg 22%
    13:00 +33°C° 0 mm 3 m/s 660 mmHg 23%
    14:00 +34°C° 0 mm 4 m/s 660 mmHg 25%
    15:00 +33°C° 0 mm 3 m/s 660 mmHg 27%
    16:00 +31°C° 0 mm 3 m/s 659 mmHg 30%
    17:00 +30°C° 0 mm 3 m/s 659 mmHg 33%
    18:00 +29°C° 0 mm 3 m/s 659 mmHg 39%
    19:00 +27°C° 0 mm 2 m/s 659 mmHg 46%
    20:00 +26°C° 0 mm 2 m/s 659 mmHg 52%
    21:00 +25°C° 0 mm 2 m/s 658 mmHg 52%
    22:00 +24°C° 0 mm 2 m/s 658 mmHg 53%
    23:00 +24°C° 0 mm 2 m/s 658 mmHg 53%

    18 Agosto, Sábado

    Tempo Temperatura Precipitação Vento Pressão Humidade
    00:00 +23°C° 0 mm 2 m/s 657 mmHg 53%
    01:00 +21°C° 0 mm 2 m/s 657 mmHg 52%
    02:00 +21°C° 0 mm 2 m/s 657 mmHg 51%
    03:00 +20°C° 0 mm 2 m/s 657 mmHg 51%
    04:00 +20°C° 0 mm 2 m/s 657 mmHg 50%
    05:00 +19°C° 0 mm 2 m/s 656 mmHg 50%
    06:00 +21°C° 0 mm 2 m/s 657 mmHg 42%
    07:00 +24°C° 0 mm 3 m/s 658 mmHg 35%
    08:00 +26°C° 0 mm 3 m/s 658 mmHg 27%
    09:00 +28°C° 0 mm 3 m/s 659 mmHg 24%
    10:00 +29°C° 0 mm 3 m/s 659 mmHg 21%
    11:00 +31°C° 0 mm 3 m/s 659 mmHg 18%
    12:00 +32°C° 0 mm 4 m/s 659 mmHg 19%
    13:00 +32°C° 0 mm 4 m/s 658 mmHg 20%
    14:00 +33°C° 0 mm 4 m/s 658 mmHg 21%
    15:00 +32°C° 0 mm 4 m/s 658 mmHg 24%
    16:00 +30°C° 0 mm 3 m/s 658 mmHg 27%
    17:00 +30°C° 0 mm 3 m/s 657 mmHg 31%
    18:00 +28°C° 0 mm 3 m/s 657 mmHg 37%
    19:00 +27°C° 0 mm 3 m/s 657 mmHg 44%
    20:00 +25°C° 0 mm 2 m/s 657 mmHg 50%
    21:00 +24°C° 0 mm 2 m/s 657 mmHg 52%
    22:00 +24°C° 0 mm 2 m/s 657 mmHg 53%
    23:00 +23°C° 0 mm 2 m/s 657 mmHg 55%

    19 Agosto, Domingo

    Tempo Temperatura Precipitação Vento Pressão Humidade
    00:00 +21°C° 0 mm 2 m/s 656 mmHg 55%
    01:00 +21°C° 0 mm 2 m/s 656 mmHg 55%
    02:00 +20°C° 0 mm 2 m/s 656 mmHg 55%
    03:00 +20°C° 0 mm 2 m/s 656 mmHg 56%
    04:00 +19°C° 0 mm 2 m/s 656 mmHg 56%
    05:00 +19°C° 0 mm 2 m/s 656 mmHg 56%
    06:00 +21°C° 0 mm 2 m/s 656 mmHg 48%
    07:00 +24°C° 0 mm 2 m/s 657 mmHg 40%
    08:00 +26°C° 0 mm 2 m/s 657 mmHg 32%
    09:00 +27°C° 0 mm 2 m/s 658 mmHg 29%
    10:00 +29°C° 0 mm 3 m/s 658 mmHg 27%
    11:00 +30°C° 0 mm 3 m/s 658 mmHg 24%
    12:00 +30°C° 0 mm 3 m/s 658 mmHg 25%
    13:00 +31°C° 0 mm 3 m/s 658 mmHg 27%
    14:00 +31°C° 0 mm 3 m/s 658 mmHg 28%
    15:00 +31°C° 0 mm 3 m/s 657 mmHg 33%
    16:00 +30°C° 0 mm 3 m/s 657 mmHg 37%
    17:00 +29°C° 0 mm 3 m/s 657 mmHg 41%
    18:00 +28°C° 0 mm 3 m/s 657 mmHg 47%
    19:00 +27°C° 0 mm 2 m/s 657 mmHg 54%
    20:00 +26°C° 0 mm 2 m/s 657 mmHg 60%
    21:00 +25°C° 0 mm 2 m/s 657 mmHg 63%
    22:00 +25°C° 0 mm 2 m/s 657 mmHg 65%
    23:00 +24°C° 0 mm 2 m/s 657 mmHg 68%

    20 Agosto, Segunda-feira

    Tempo Temperatura Precipitação Vento Pressão Humidade
    00:00 +23°C° 0 mm 2 m/s 656 mmHg 68%
    01:00 +23°C° 0 mm 2 m/s 656 mmHg 69%
    02:00 +23°C° 0 mm 2 m/s 656 mmHg 69%
    03:00 +21°C° 0 mm 2 m/s 656 mmHg 69%
    04:00 +22°C° 0 mm 1 m/s 656 mmHg 68%
    05:00 +21°C° 0 mm 1 m/s 656 mmHg 68%
    06:00 +23°C° 0 mm 2 m/s 657 mmHg 59%
    07:00 +25°C° 0 mm 2 m/s 657 mmHg 50%
    08:00 +26°C° 0 mm 2 m/s 658 mmHg 41%
    09:00 +28°C° 0 mm 2 m/s 658 mmHg 37%
    10:00 +29°C° 0 mm 2 m/s 659 mmHg 34%
    11:00 +30°C° 0 mm 3 m/s 659 mmHg 31%
    12:00 +31°C° 0 mm 3 m/s 659 mmHg 32%
    13:00 +31°C° 0 mm 3 m/s 659 mmHg 32%
    14:00 +31°C° 0 mm 3 m/s 659 mmHg 33%
    15:00 +31°C° 0 mm 3 m/s 659 mmHg 37%
    16:00 +30°C° 0 mm 3 m/s 658 mmHg 40%
    17:00 +30°C° 0 mm 3 m/s 658 mmHg 43%
    18:00 +29°C° 0 mm 2 m/s 658 mmHg 49%
    19:00 +27°C° 0 mm 2 m/s 658 mmHg 56%
    20:00 +26°C° 0 mm 2 m/s 658 mmHg 62%
    21:00 +26°C° 0 mm 1 m/s 658 mmHg 64%
    22:00 +25°C° 0 mm 1 m/s 658 mmHg 66%
    23:00 +25°C° 0 mm 1 m/s 658 mmHg 68%
    Mostrar mais